Flag for Lebanon Weather past 2 weeks in Sidon, Lebanon

Now
75 °F

Scattered clouds.


Feels Like: 77 °F
Forecast: 69 / 82 °F
Wind: 12 mph from Southwest

Location: Beirut Airport

Current Time: May 23, 2015 at 6:50:06 PM

Latest Report: May 23, 2015 at 6:00 PM


Visibility: N/A

Pressure: 29.95 "Hg

Humidity: 69%

Dew point: 64 °F

Location of SidonLocation

Historic Weather in Sidon — Graph

°F

Sidon temperature yesterday

Maximum temperature yesterday: 77 °F (at 12:00 PM)
Minimum temperature yesterday: 68 °F (at 4:00 AM)
Average temperature yesterday: 72 °F

Past Weeks' High & Low Weather Summary

 TemperatureHumidityPressure
High104 °F (May 19, 1:00 PM)94% (May 20, 2:00 AM)30.21 "Hg (May 20, 2:00 AM)
Low64 °F (May 14, 9:00 AM)10% (May 19, 9:00 AM)29.71 "Hg (May 9, 6:00 PM)
Average74 °F62%29.93 "Hg
* Reported May 8 5:00 PM — May 23 5:00 PM, Sidon, Weather by CustomWeather, © 2015

Note: Actual official high and low records may vary slightly from our data, if they occured in-between our weather recording intervals... More about our weather records

Advertising

Sidon weather history for previous 24 hours

 ConditionsComfort  
Time TempWeatherWind HumidityBarometerVisibility
5:00 PM
Sat, May 23
77 °FScattered clouds.14 mph69%29.95 "HgN/A
4:00 PM77 °FScattered clouds.18 mph65%29.95 "HgN/A
3:00 PM77 °FScattered clouds.18 mph65%29.95 "HgN/A
2:00 PM77 °FPartly sunny.16 mph65%29.95 "HgN/A
1:00 PM75 °FPartly sunny.20 mph69%29.95 "Hg5 mi
12:00 PM75 °FPartly sunny.18 mph69%29.98 "HgN/A
11:00 AM75 °FPartly sunny.20 mph69%29.95 "HgN/A
10:00 AM75 °FPartly sunny.18 mph69%29.95 "HgN/A
9:00 AM73 °FPartly sunny.15 mph65%29.95 "HgN/A
8:00 AM73 °FPartly sunny.12 mph65%29.92 "HgN/A
7:00 AM72 °FScattered clouds.8 mph65%29.92 "HgN/A
6:00 AM70 °FPassing clouds.8 mph69%29.92 "HgN/A
5:00 AM70 °FPassing clouds.5 mph69%29.92 "HgN/A
4:00 AM70 °FPassing clouds.8 mph73%29.92 "HgN/A
3:00 AM70 °FPassing clouds.5 mph69%29.92 "HgN/A
2:00 AM70 °FPassing clouds.6 mph69%29.92 "HgN/A
1:00 AM72 °FPassing clouds.8 mph65%29.95 "HgN/A
12:00 AM72 °FPassing clouds.10 mph69%29.95 "HgN/A
11:00 PM
Fri, May 22
72 °FPassing clouds.9 mph65%29.95 "HgN/A
10:00 PM72 °FPassing clouds.5 mph65%29.95 "HgN/A
9:00 PM72 °FPassing clouds.9 mph69%29.95 "HgN/A
8:00 PM72 °FScattered clouds.13 mph73%29.92 "HgN/A
7:00 PM73 °FScattered clouds.13 mph65%29.92 "HgN/A
6:00 PM73 °FScattered clouds.13 mph69%29.92 "HgN/A
Weather by CustomWeather, © 2015

See weather overviewHow to use our weather pages